Location: Góry Miechowskie
(50.3599°N, 20.1803°E)
Time: 15:53:29
(UTC+00:00)

S-56A Canister/Altair - Pass Details

Date: 20 September 2024
Orbit: 636 x 2487 km, 38.9° (Epoch: 09 October)

Event Time Altitude Azimuth Distance (km) Brightness Sun altitude
Rises 18:46:16 0° 256° (WSW) 3,322 11.6 -20.0°
Reaches altitude 10° 18:48:43 10° 245° (WSW) 2,563 10.7 -20.4°
Maximum altitude 18:53:56 30° 186° (S) 1,892 9.3 -21.1°
Enters shadow 18:56:05 26° 159° (SSE) 2,200 9.4 -21.4°
